www.pogodaiklimat.ru

Погода и климат >> Архив погоды >> Россия >> Калмыкия >> Юста


ПОГОДА в Юсте

  • Прогноз погоды в Юсте
  • Монитор погоды в Юсте
  • Климат города

АРХИВ ПОГОДЫ в Юсте

Время (UTC), дата Ветер
(напр.,м/с)
 
Видим.   Явления Облачность Т
(С)
Тd
(С)
f
(%)
Тe
(С)
Тes
(С)
Комфортность P
(гПа)
Po
(гПа)
Тmin
(С)
Tmax
(С)
R
(мм)
R24
(мм)
S
(см)
00 11.11 В 2 10 км 9/9 300 м
[Sc]
+2.7 +1.7 93 -1 -1 1023.5 1023.1
03 11.11 СВ 1 10 км 9/9 300 м
[Sc]
+3.0 +2.0 93 +1 +1 1023.0 1022.6 +2.5
06 11.11 СВ 2 500 м туман ?/? +2.7 +2.7 100 -1 -1 1022.9 1022.5 +2.4
09 11.11 СВ 1 4000 м слабый дождь {туман} 10/10 300 м
[Cu med, cong]
+4.1 +3.8 98 +2 +2 1022.2 1021.8
12 11.11 штиль 0 20 км {дождь} 9/9 300 м
[Sc]
+5.4 +4.4 93 +4 +4 1021.5 1021.1
15 11.11 штиль 0 10 км 9/9 300 м
[Sc]
+5.7 +4.3 91 +5 +5 1022.0 1021.6 +5.7 0.8
18 11.11 штиль 0 10 км 9/9 300 м
[Sc]
+5.6 +4.8 95 +4 +4 1021.8 1021.4
21 11.11 штиль 0 10 км 9/9 300 м
[Sc]
+5.6 +5.0 96 +4 +4 1021.6 1021.2
00 12.11 ЮВ 1 10 км 9/9 300 м
[Sc]
+5.7 +5.1 96 +4 +4 1021.0 1020.6
03 12.11 Ю 2 10 км 9/9 300 м
[Sc]
+6.0 +5.6 97 +3 +3 1020.9 1020.5 +5.6
06 12.11 Ю 2 20 км 9/9 600 м
[Sc]
+7.5 +6.7 95 +5 +5 1021.5 1021.1
09 12.11 Ю 4 20 км 9/9 600 м
[Sc]
+9.4 +7.7 89 +6 +7 1020.7 1020.3
12 12.11 ЮЗ 4 20 км 8/0
[Ac trans Cs]
+11.1 +7.2 77 +9 +9 1019.9 1019.5
15 12.11 Ю 4 10 км 9/9 300 м
[Sc]
+10.0 +7.3 83 +7 +7 1020.4 1020.0 +11.4
18 12.11 Ю 2 10 км 4/0
[Ac und]
+7.6 +6.6 93 +5 +5 1020.2 1019.8
21 12.11 Ю 2 10 км ясно +6.7 +6.2 97 +4 +4 1020.2 1019.8
00 13.11 Ю 4 10 км 9/9 300 м
[Sc]
+7.1 +6.7 97 +3 +3 1019.9 1019.5
03 13.11 Ю 5 10 км 9/9 300 м
[Sc]
+6.9 +6.5 97 +3 +3 1020.6 1020.2 +6.7
06 13.11 Ю 5
{10}
20 км 9/0
[Ac As]
+8.4 +6.8 90 +5 +5 1021.7 1021.3
09 13.11 Ю 4 20 км 9/4 600 м
[Sc Ac und]
+11.0 +7.5 79 +9 +9 1021.0 1020.7
12 13.11 Ю 4 20 км 8/4 600 м
[Sc Ac trans]
+12.4 +8.5 77 +10 +11 1021.2 1020.8
15 13.11 Ю 2 10 км 9/0
[Ac trans]
+10.8 +8.6 86 +9 +9 1022.6 1022.2 +12.8
18 13.11 Ю 3 10 км 9/9 300 м
[Sc]
+10.3 +9.1 92 +8 +8 1023.1 1022.7
21 13.11 Ю 3 10 км 9/0
[As trans]
+8.6 +8.1 97 +6 +6 1023.1 1022.7
00 14.11 Ю 2 10 км 9/0
[Ac As]
+7.8 +7.5 98 +6 +6 1022.7 1022.3
03 14.11 Ю 2 500 м туман ?/? +9.3 +9.1 99 +7 +7 1022.8 1022.5 +7.1
06 14.11 Ю 3 4000 м дымка {туман} 10/10 300 м
[St]
+9.8 +9.5 98 +7 +7 1023.7 1023.3
09 14.11 ЮВ 3 20 км 9/9 300 м
[Sc]
+12.2 +10.5 89 +11 +11 1022.8 1022.4
12 14.11 ЮВ 3 20 км 9/9 300 м
[Sc]
+12.3 +8.3 77 +11 +11 1022.2 1021.8
15 14.11 ЮВ 3 10 км 9/9 300 м
[Sc]
+11.1 +7.8 80 +9 +9 1022.4 1022.1 +12.6
18 14.11 ЮВ 3 10 км 9/9 300 м
[Sc]
+7.9 +6.1 88 +5 +5 1022.0 1021.6
21 14.11 ЮВ 4 10 км 9/9 300 м
[Sc]
+9.3 +8.0 92 +6 +6 1021.6 1021.2
00 15.11 ЮВ 5 10 км 9/9 300 м
[Sc]
+8.6 +7.4 92 +5 +5 1020.9 1020.5
03 15.11 ЮВ 4 10 км 9/9 300 м
[Sc]
+8.5 +7.2 92 +5 +5 1021.4 1021.1 +7.5
06 15.11 ЮВ 4 20 км 9/9 300 м
[Sc]
+8.9 +7.4 90 +6 +6 1021.7 1021.3
09 15.11 Ю 4 20 км 9/9 600 м
[Sc]
+12.4 +9.0 80 +10 +11 1020.8 1020.4
12 15.11 Ю 3 20 км 9/9 600 м
[Sc]
+12.8 +9.9 83 +11 +11 1020.6 1020.2
15 15.11 ЮВ 2 10 км 9/9 300 м
[Sc]
+12.0 +11.4 96 +11 +11 1020.7 1020.3 +12.9
18 15.11 ЮЗ 2 10 км 9/9 300 м
[Sc]
+11.9 +11.3 96 +11 +11 1021.0 1020.6
21 15.11 ЮЗ 2 4000 м дымка 9/9 300 м
[Sc]
+11.1 +10.9 99 +10 +10 1021.0 1020.6
00 16.11 С 6
{12}
10 км 9/9 300 м
[Sc]
+6.4 +5.8 96 +2 +2 1023.1 1022.7
03 16.11 С 8-11
{13}
10 км 9/9 300 м
[Sc]
+3.3 +1.0 85 -3 -3 1025.9 1025.6 +3.3
06 16.11 С 4
{11}
20 км 3/3 600 м
[Sc]
+2.5 -0.2 82 -2 -2 1028.1 1027.7 +2.3
09 16.11 С 5
{11}
20 км 3/0
[Ci fib]
+5.2 -2.1 59 +1 +3 1028.4 1028.0
12 16.11 СЗ 3 20 км ясно +6.0 -2.0 56 +3 +4 1028.1 1027.7
15 16.11 СЗ 3 10 км ясно +2.2 -2.0 74 -2 -2 1028.7 1028.3 +6.2
18 16.11 З 1 10 км ясно -2.0 -3.7 88 -4 -4 1028.3 1028.0
21 16.11 З 2 10 км ясно -2.8 -4.5 88 -7 -7 1028.1 1027.7
00 17.11 З 2 10 км ясно -3.4 -4.8 90 -8 -8 1027.4 1027.0
03 17.11 З 3 10 км ясно -4.8 -5.6 94 -10 -10 1027.6 1027.2 -4.9
06 17.11 З 3 20 км 8/0
[Cs]
+0.3 -1.0 91 -4 -4 1028.3 1027.9 -5.0
09 17.11 З 4 20 км 8/0
[Cs]
+5.3 -0.6 66 +2 +3 1028.1 1027.7
12 17.11 СЗ 3 20 км 3/0
[Ci fib]
+6.8 -0.3 61 +4 +5 1028.4 1028.0
15 17.11 З 1 10 км ясно +0.8 -1.9 82 -1 -1 1029.1 1028.8 +7.2
18 17.11 С 1 10 км ясно -2.0 -3.3 91 -4 -4 1030.2 1029.8

 

Местоположение метеостанции Юста (Калмыкия, Россия): широта 47.13 долгота 46.32 высота над уровнем моря 3 м.

В архиве по умолчанию представлена погода в Юсте за последнюю неделю. Архивные данные за месяц целиком и за предыдущие месяцы, начиная с января 2011 года, Вы можете получить, выбрав интересующий диапазон дат из раскрывающегося списка и нажав кнопку "Ввод!".

Внимание! Время в таблицах - всемирное. Для получения местного времени необходимо прибавить поправку, которая в Юсте равна 3 ч.

Смотрите также архив погоды в соседних городах и на ближайших метеорологических станциях:

Погода в Харабали (Астраханская область, Россия) (76 км)
Погода в Утте (Калмыкия, Россия) (88 км)
Погода в Черный Яр (Астраханская область, Россия) (106 км)
Погода в Досанге (Астраханская область, Россия) (124 км)
Погода в Верхнем Баскунчаке (Астраханская область, Россия) (125 км)
Погода в Яшкуле (Калмыкия, Россия) (129 км)
Погода в Кетченерах (Калмыкия, Россия) (134 км)
Погода в Малых Дербетах (Калмыкия, Россия) (151 км)
Погода в Астрахани (Астраханская область, Россия) (158 км)
Погода в Лимане (Астраханская область, Россия) (163 км)

Пояснения к столбцам:

Ветер - указаны скорость ветра в м/с - средняя за 10 мин, порывы в срок и между сроками (в фигурных скобках) и направление, откуда дует ветер: С - северный, СВ - северо-восточный, В - восточный, ЮВ - юго-восточный, Ю - южный, ЮЗ - юго-западный, З - западный, СЗ - северо-западный.
Видимость - горизонтальная дальность видимости в метрах или километрах. При видимости от 1 до 10 км при отсутствии осадков обычно наблюдается дымка, при ухудшении видимости до 1 км и менее - туман. В сухую погоду видимость может ухудшаться дымом, пылью или мглою.
Явления - указаны атмосферные явления, наблюдавшиеся в срок или в последний час перед сроком; фигурными скобками обозначены явления, наблюдавшиеся между сроками (за 1-3 часа до срока); квадратными скобками обозначены град или гололедные отложения с указанием их диаметра в мм.
Облачность - указаны через наклонную черту общая и нижняя облачность в баллах и высота нижней границы облаков в метрах; квадратными скобками обозначены формы облаков: Ci - перистые, Cs - перисто-слоистые, Cc - перисто-кучевые, Ac - высококучевые, As - высокослоистые, Sc - слоисто-кучевые, Ns - слоисто-дождевые, Cu - кучевые, Cb - кучево-дождевые. Подробнее классификацию облаков см. в Атласе облаков (PDF).
T - Температура воздуха - температура, измеренная на высоте 2 м над землей.
Td - Температура точки росы - температура, при понижении до которой содержащийся в воздухе водяной пар достигнет насыщения.
f - Относительная влажность воздуха - влажноcть воздуха, измеренная на высоте 2 м над землей.
Te - Эффективная температура - температура, которую ощущает одетый по сезону человек в тени. Характеристика душности погоды. При расчете учитывается влияние влажности воздуха и скорости ветра на теплоощущения человека.
Tes - Эффективная температура на солнце - температура, которую ощущает человек, с поправкой на солнечный нагрев. Характеристика знойности погоды. Зависит от высоты солнца над горизонтом, облачности и скорости ветра. Ночью, в пасмурную погоду, а также при ветре 12 м/с и более поправка равна нулю.
P - Атмосферное давление - приведенное к уровню моря атмосферное давление.
Po - Атмосферное давление - измеренное на уровне метеостанции атмосферное давление.
Tmin - Минимальная температура - минимум температуры воздуха на высоте 2 м над землей.
Tmax - Максимальная температура - максимум температуры воздуха на высоте 2 м над землей.
R - Количество осадков - Количество выпавших осадков за период времени, мм. При наведении курсора мыши на число - период времени, за который выпало указанное количество осадков.
R24 - Количество осадков - Количество выпавших осадков за 24 часа, мм.
S - Снежный покров - Высота снежного покрова, см. При наведении курсора мыши на число - состояние снежного покрова и степень покрытия местности в баллах.